Location: Bergnershof
(48.9468°N, 10.9431°E)
Time: 00:40:42
(UTC+00:00)

Cosmos 1844 Rocket - Pass Details

Date: 19 June 2021
Orbit: 823 x 846 km, 71.0° (Epoch: 30 July)

Event Time Altitude Azimuth Distance (km) Brightness Sun altitude
Rises 21:26:46 0° 322° (NW) 3,413 7.6 -13.5°
Reaches altitude 10° 21:29:38 10° 310° (NW) 2,475 6.2 -13.7°
Maximum altitude 21:34:05 24° 258° (WSW) 1,681 4.4 -14.0°
Drops below altitude 10° 21:38:30 10° 206° (SSW) 2,463 4.7 -14.3°
Enters shadow 21:38:56 - 203° (SSW) 2,591 4.8 -14.3°
